Hoquiam, WA
on Monday, January 7, 2013

Monday
Previous Day Next Day
Daily Summary
 ActualAverageRecord
Temperature
Mean Temperature °F 42°F  
Max Temperature 48°F 46°F 56°F (2003)
Min Temperature 44°F 38°F 16°F (1974)
Degree Days
Heating Degree Days 19 23  
Month to date heating degree days 161  
Cooling Degree Days 0 0  
Month to date cooling degree days 0  
Year to date cooling degree days 0  
Moisture
Dew Point 46°F   
Average Humidity 94    
Maximum Humidity 100    
Minimum Humidity 82    
Precipitation
Precipitation 1.09 in 0.36 in 3.48 in (2009)
Month to date precipitation 2.44  
Year to date precipitation 2.44  
Wind
Wind Speed 14 mph   
Max Wind Speed 22 mph   
Max Gust Speed 29 mph   
Visibility 5 miles   
Events Rain   

Key: T is trace of precipitation, MM is missing value
Source: NWS Daily Summary
Time(PST)TemperatureDew PointHumidity Pressure Visibility Wind DirectionWind SpeedGust SpeedPrecipitationEvents Conditions
12:40 AM 46.4°F 44.6°F 93% 29.93 in 4.0 miles SSE 18.4 mph - 0.04 in Rain Light Rain
12:53 AM 46.0°F 45.0°F 96% 29.94 in 4.0 miles SSE 16.1 mph - 0.06 in Rain Light Rain
1:07 AM 46.4°F 44.6°F 93% 29.93 in 5.0 miles SSE 13.8 mph - 0.02 in Rain Light Rain
1:48 AM 46.4°F 46.4°F 100% 29.91 in 2.5 miles South 9.2 mph - 0.10 in Rain Light Rain
1:53 AM 46.9°F 46.0°F 97% 29.92 in 2.5 miles South 8.1 mph - 0.12 in Rain Rain
2:11 AM 46.4°F 46.4°F 100% 29.90 in 3.0 miles SSE 5.8 mph - 0.03 in Rain Light Rain
2:44 AM 48.2°F 48.2°F 100% 29.89 in 2.5 miles South 10.4 mph - 0.10 in Rain Rain
2:53 AM 48.0°F 48.0°F 100% 29.91 in 3.0 miles SSW 8.1 mph - 0.12 in Rain Light Rain
3:11 AM 48.2°F 46.4°F 93% 29.91 in 2.0 miles SSW 13.8 mph - 0.09 in Rain Rain
3:26 AM 48.2°F 46.4°F 93% 29.92 in 3.0 miles SSW 12.7 mph - 0.15 in Rain Rain
3:38 AM 48.2°F 46.4°F 93% 29.92 in 2.5 miles SSW 12.7 mph - 0.21 in Rain Rain
3:53 AM 48.0°F 46.9°F 96% 29.91 in 3.0 miles SSW 12.7 mph - 0.26 in Rain Rain
4:07 AM 48.2°F 46.4°F 93% 29.89 in 3.0 miles South 9.2 mph - 0.05 in Rain Rain
4:22 AM 48.2°F 48.2°F 100% 29.88 in 4.0 miles South 10.4 mph - 0.10 in Rain Rain
4:51 AM 48.2°F 46.4°F 93% 29.87 in 2.5 miles SSW 17.3 mph - 0.19 in Rain Light Rain
4:53 AM 48.0°F 46.9°F 96% 29.88 in 2.5 miles SSW 17.3 mph - 0.20 in Rain Light Rain
5:13 AM 48.2°F 48.2°F 100% 29.86 in 3.0 miles South 17.3 mph - N/A Rain Rain
5:23 AM 48.2°F 48.2°F 100% 29.86 in 3.0 miles South 15.0 mph - 0.09 in Rain Rain
5:53 AM 48.9°F 48.0°F 97% 29.88 in 2.0 miles South 13.8 mph - 0.18 in Rain Rain
6:04 AM 48.2°F 48.2°F 100% 29.87 in 2.5 miles SSW 16.1 mph - 0.03 in Rain Light Rain
6:22 AM 48.2°F 48.2°F 100% 29.88 in 1.8 miles SW 15.0 mph - 0.07 in Rain Light Rain
6:50 AM 48.2°F 48.2°F 100% 29.88 in 2.0 miles SW 17.3 mph - 0.09 in Rain Light Rain
6:53 AM 48.9°F 48.0°F 97% 29.89 in 1.8 miles SW 16.1 mph - 0.09 in Rain Light Rain
7:13 AM 48.2°F 48.2°F 100% 29.88 in 2.0 miles SW 15.0 mph - 0.02 in Rain Light Rain
7:53 AM 48.9°F 48.0°F 97% 29.90 in 2.5 miles SW 16.1 mph - 0.03 in   Overcast
8:37 AM 48.2°F 48.2°F 100% 29.91 in 1.0 miles SW 17.3 mph - 0.01 in Rain Light Rain
8:53 AM 48.9°F 48.0°F 97% 29.94 in 1.5 miles SW 19.6 mph - 0.01 in   Overcast
9:22 AM 48.2°F 48.2°F 100% 29.93 in 2.5 miles SW 20.7 mph - 0.01 in   Overcast
9:34 AM 48.2°F 48.2°F 100% 29.94 in 5.0 miles WSW 17.3 mph 28.8 mph 0.01 in   Overcast
9:53 AM 48.9°F 48.0°F 97% 29.96 in 5.0 miles WSW 21.9 mph - 0.01 in   Overcast
10:01 AM 48.2°F 48.2°F 100% 29.96 in 3.0 miles WSW 17.3 mph 26.5 mph N/A   Overcast
10:11 AM 48.2°F 48.2°F 100% 29.97 in 2.5 miles SW 16.1 mph - N/A   Overcast
10:30 AM 48.2°F 46.4°F 93% 29.98 in 4.0 miles WSW 20.7 mph 26.5 mph N/A   Overcast
10:40 AM 48.2°F 46.4°F 93% 29.99 in 5.0 miles WSW 19.6 mph 26.5 mph N/A   Overcast
10:50 AM 48.2°F 46.4°F 93% 29.99 in 9.0 miles WSW 16.1 mph 25.3 mph N/A   Overcast
10:53 AM 48.2°F 46.4°F 93% 29.99 in 10.0 miles WSW 17.3 mph 25.3 mph N/A   Overcast
11:01 AM 48.2°F 46.4°F 93% 30.00 in 1.8 miles WSW 19.6 mph - N/A   Overcast
11:12 AM 48.2°F 46.4°F 93% 30.00 in 1.2 miles WSW 17.3 mph - 0.01 in Rain Light Rain
11:21 AM 48.2°F 46.4°F 93% 30.00 in 1.8 miles WSW 16.1 mph 23.0 mph 0.01 in   Overcast
11:28 AM 48.2°F 46.4°F 93% 30.01 in 3.0 miles WSW 13.8 mph - 0.01 in   Overcast
11:35 AM 48.2°F 46.4°F 93% 30.01 in 4.0 miles WSW 17.3 mph - 0.01 in   Overcast
11:49 AM 48.2°F 46.4°F 93% 30.01 in 2.5 miles WSW 17.3 mph - 0.01 in   Overcast
11:53 AM 48.0°F 46.9°F 96% 30.03 in 1.8 miles WSW 19.6 mph - 0.01 in   Overcast
11:58 AM 48.2°F 46.4°F 93% 30.03 in 2.0 miles WSW 18.4 mph 25.3 mph N/A   Overcast
12:02 PM 48.2°F 46.4°F 93% 30.03 in 3.0 miles WSW 17.3 mph 24.2 mph N/A   Overcast
12:21 PM 48.2°F 46.4°F 93% 30.03 in 4.0 miles WSW 15.0 mph 28.8 mph N/A   Overcast
12:43 PM 48.2°F 46.4°F 93% 30.02 in 2.5 miles WSW 16.1 mph 26.5 mph N/A Rain Light Rain
12:51 PM 48.2°F 46.4°F 93% 30.03 in 9.0 miles WSW 13.8 mph 21.9 mph 0.00 in   Overcast
12:53 PM 48.0°F 46.9°F 96% 30.04 in 10.0 miles WSW 15.0 mph - 0.00 in   Overcast
1:09 PM 48.2°F 46.4°F 93% 30.04 in 8.0 miles WSW 15.0 mph 24.2 mph N/A   Overcast
1:20 PM 48.2°F 46.4°F 93% 30.05 in 7.0 miles WSW 17.3 mph - 0.00 in   Overcast
1:53 PM 48.0°F 46.0°F 93% 30.07 in 10.0 miles WSW 11.5 mph - 0.00 in   Overcast
2:09 PM 48.2°F 46.4°F 93% 30.06 in 2.5 miles WSW 16.1 mph - 0.01 in Rain Light Rain
2:22 PM 48.2°F 46.4°F 93% 30.07 in 9.0 miles WSW 13.8 mph - 0.01 in   Overcast
2:53 PM 48.2°F 44.6°F 87% 30.08 in 10.0 miles West 20.7 mph 25.3 mph N/A   Overcast
3:53 PM 48.0°F 45.0°F 89% 30.11 in 7.0 miles WSW 12.7 mph 20.7 mph N/A   Overcast
4:11 PM 48.2°F 44.6°F 87% 30.10 in 7.0 miles WSW 13.8 mph - N/A   Overcast
4:48 PM 48.2°F 44.6°F 87% 30.12 in 10.0 miles West 19.6 mph - N/A   Mostly Cloudy
4:53 PM 48.9°F 44.1°F 83% 30.14 in 10.0 miles West 17.3 mph - N/A   Overcast
5:00 PM 48.2°F 44.6°F 87% 30.12 in 8.0 miles West 17.3 mph - 0.00 in Rain Light Rain
5:13 PM 48.2°F 42.8°F 82% 30.13 in 10.0 miles West 16.1 mph - 0.00 in   Mostly Cloudy
5:53 PM 48.0°F 43.0°F 83% 30.16 in 10.0 miles West 10.4 mph - 0.00 in   Mostly Cloudy
6:53 PM 46.0°F 43.0°F 89% 30.16 in 9.0 miles WSW 6.9 mph - N/A   Overcast
7:53 PM 46.0°F 43.0°F 89% 30.17 in 9.0 miles West 3.5 mph - N/A   Mostly Cloudy
8:16 PM 46.4°F 42.8°F 87% 30.16 in 9.0 miles Calm Calm - N/A   Mostly Cloudy
8:53 PM 46.0°F 43.0°F 89% 30.18 in 8.0 miles West 3.5 mph - N/A   Overcast
9:09 PM 46.4°F 44.6°F 93% 30.17 in 7.0 miles West 4.6 mph - N/A   Overcast
9:30 PM 46.4°F 44.6°F 93% 30.18 in 7.0 miles West 4.6 mph - N/A   Overcast
9:53 PM 45.0°F 44.1°F 97% 30.18 in 8.0 miles Calm Calm - N/A   Overcast
10:43 PM 44.6°F 42.8°F 93% 30.17 in 7.0 miles Calm Calm - N/A   Overcast
10:53 PM 44.1°F 43.0°F 96% 30.19 in 7.0 miles Calm Calm - N/A   Mostly Cloudy
11:26 PM 44.6°F 42.8°F 93% 30.18 in 6.0 miles Calm Calm - N/A   Overcast
11:53 PM 44.1°F 43.0°F 96% 30.19 in 7.0 miles Calm Calm - N/A   Mostly Cloudy
Moon Phase
Jan. 07 Jan. 11 Jan. 18 Jan. 26 Feb. 03
Sunrise:08:00 AM (PST) Moon Rise:03:26 AM (PST)1/7
Sunset:04:44 PM (PST) Moon Set:01:02 PM (PST)1/7

Copyright © 2014 The Weather Underground, Inc.